Starlink 32248

operational
NORAD ID: 61219 Int'l Des: 2024-171 Owner: SPXS Country: US Constellation: starlink
LEOCIRCULAR

关于 Starlink 32248

正在加载描述...

实时位置

正在加载3D地球...

即将过境

高度历史

Altitude vs Time

uPlot chart will show altitude changes over time

两行轨道根数

1 61219U 24171V 26034.64779261 -.00002745 00000-0 -80659-4 0 9993
2 61219 53.1603 120.7642 0001247 78.5142 281.5999 15.30168185 78064
Epoch: Feb 3, 2026 • Age: 14 hours

当前状态

高度 479.1 km
速度 7.63 km/s
星下点 44.74°N, 57.68°W
发射日期 Sep 20, 2024
运行时间 1.3 years
类型 internet

技术详情

分类 Payload
质量 730.00 kg
干质量 700.00 kg
总质量 730.00 kg
长度 0.30 m
直径 4.10 m
跨度 29.00 m
形状 Box + pan
制造商 SPXS
平台类型 Starlink V2M
阶段状态 In Orbit
所有者/国家 SPXS/US

大型星座

Loading constellations...